• In Portugal
  • List of Countries
  • For 7 days
  • Water Temperature
  • Satellite Maps
  • Weather Map
  • Weather Widgets
  • user-avatar
    Login

    Hourly Weather Herāt

    Today, 23 November, Thursday

    Time Temperature Precipitation Wind Pressure Humidity
    00:00 +13°C° 0 mm 5 mps 677 mmHg 30%
    01:00 +13°C° 0 mm 5 mps 677 mmHg 30%
    02:00 +13°C° 0 mm 5 mps 677 mmHg 30%
    03:00 +12°C° 0 mm 4 mps 677 mmHg 30%
    04:00 +12°C° 0 mm 4 mps 677 mmHg 30%
    05:00 +12°C° 0 mm 4 mps 677 mmHg 29%
    06:00 +12°C° 0 mm 4 mps 677 mmHg 29%
    07:00 +12°C° 0 mm 4 mps 677 mmHg 29%
    08:00 +14°C° 0 mm 4 mps 677 mmHg 25%
    09:00 +17°C° 0 mm 4 mps 678 mmHg 20%
    10:00 +20°C° 0 mm 5 mps 678 mmHg 16%
    11:00 +20°C° 0 mm 6 mps 678 mmHg 15%
    12:00 +21°C° 0 mm 6 mps 678 mmHg 15%
    13:00 +22°C° 0 mm 6 mps 678 mmHg 14%
    14:00 +22°C° 0 mm 6 mps 677 mmHg 14%
    15:00 +21°C° 0 mm 6 mps 677 mmHg 14%
    16:00 +21°C° 0 mm 6 mps 677 mmHg 14%
    17:00 +20°C° 0 mm 5 mps 677 mmHg 15%
    18:00 +19°C° 0 mm 5 mps 677 mmHg 16%
    19:00 +18°C° 0 mm 4 mps 677 mmHg 17%
    20:00 +18°C° 0 mm 4 mps 677 mmHg 17%
    21:00 +18°C° 0 mm 4 mps 677 mmHg 18%
    22:00 +17°C° 0 mm 4 mps 676 mmHg 18%
    23:00 +17°C° 0 mm 4 mps 677 mmHg 18%

    Tomorrow, 24 November, Friday

    Time Temperature Precipitation Wind Pressure Humidity
    00:00 +17°C° 0 mm 4 mps 677 mmHg 18%
    01:00 +17°C° 0 mm 4 mps 677 mmHg 19%
    02:00 +17°C° 0 mm 4 mps 677 mmHg 19%
    03:00 +15°C° 0 mm 4 mps 677 mmHg 19%
    04:00 +15°C° 0 mm 4 mps 677 mmHg 20%
    05:00 +15°C° 0.1 mm 4 mps 677 mmHg 23%
    06:00 +14°C° 0.1 mm 3 mps 678 mmHg 27%
    07:00 +14°C° 0.1 mm 3 mps 678 mmHg 31%
    08:00 +15°C° 0.1 mm 4 mps 679 mmHg 31%
    09:00 +17°C° 0.1 mm 4 mps 679 mmHg 31%
    10:00 +17°C° 0.1 mm 5 mps 680 mmHg 32%
    11:00 +19°C° 0 mm 5 mps 679 mmHg 31%
    12:00 +20°C° 0 mm 5 mps 679 mmHg 30%
    13:00 +21°C° 0 mm 5 mps 679 mmHg 30%
    14:00 +21°C° 0 mm 5 mps 678 mmHg 29%
    15:00 +20°C° 0 mm 5 mps 678 mmHg 28%
    16:00 +20°C° 0 mm 5 mps 678 mmHg 28%
    17:00 +19°C° 0 mm 4 mps 678 mmHg 30%
    18:00 +18°C° 0 mm 4 mps 678 mmHg 33%
    19:00 +16°C° 0 mm 3 mps 678 mmHg 35%
    20:00 +16°C° 0 mm 3 mps 677 mmHg 36%
    21:00 +16°C° 0 mm 3 mps 677 mmHg 38%
    22:00 +14°C° 0 mm 4 mps 677 mmHg 39%
    23:00 +14°C° 0.1 mm 4 mps 677 mmHg 40%

    Day after tomorrow, 25 November, Saturday

    Time Temperature Precipitation Wind Pressure Humidity
    00:00 +14°C° 0.1 mm 4 mps 677 mmHg 42%
    01:00 +13°C° 0.1 mm 3 mps 677 mmHg 43%
    02:00 +13°C° 0.5 mm 3 mps 677 mmHg 48%
    03:00 +12°C° 0.5 mm 3 mps 676 mmHg 53%
    04:00 +12°C° 0.5 mm 3 mps 676 mmHg 57%
    05:00 +12°C° 0.6 mm 3 mps 677 mmHg 61%
    06:00 +12°C° 0.6 mm 2 mps 677 mmHg 64%
    07:00 +12°C° 0.6 mm 2 mps 678 mmHg 68%
    08:00 +12°C° 0.3 mm 3 mps 679 mmHg 60%
    09:00 +13°C° 0.3 mm 4 mps 679 mmHg 51%
    10:00 +15°C° 0.3 mm 4 mps 680 mmHg 43%
    11:00 +15°C° 0 mm 5 mps 680 mmHg 38%
    12:00 +16°C° 0 mm 5 mps 680 mmHg 32%
    13:00 +16°C° 0 mm 6 mps 681 mmHg 27%
    14:00 +16°C° 0 mm 6 mps 681 mmHg 25%
    15:00 +15°C° 0 mm 6 mps 681 mmHg 24%
    16:00 +15°C° 0 mm 6 mps 681 mmHg 23%
    17:00 +14°C° 0 mm 5 mps 681 mmHg 25%
    18:00 +12°C° 0 mm 4 mps 682 mmHg 28%
    19:00 +11°C° 0 mm 3 mps 682 mmHg 30%
    20:00 +12°C° 0 mm 2 mps 682 mmHg 30%
    21:00 +10°C° 0 mm 2 mps 683 mmHg 31%
    22:00 +9°C° 0 mm 2 mps 683 mmHg 31%
    23:00 +9°C° 0 mm 2 mps 683 mmHg 30%

    26 November, Sunday

    Time Temperature Precipitation Wind Pressure Humidity
    00:00 +8°C° 0 mm 2 mps 683 mmHg 30%
    01:00 +8°C° 0 mm 2 mps 683 mmHg 29%
    02:00 +8°C° 0 mm 2 mps 683 mmHg 30%
    03:00 +7°C° 0 mm 2 mps 683 mmHg 31%
    04:00 +7°C° 0 mm 2 mps 683 mmHg 32%
    05:00 +7°C° 0 mm 2 mps 684 mmHg 33%
    06:00 +7°C° 0 mm 2 mps 684 mmHg 33%
    07:00 +7°C° 0 mm 2 mps 685 mmHg 33%
    08:00 +8°C° 0 mm 2 mps 685 mmHg 30%
    09:00 +10°C° 0 mm 2 mps 686 mmHg 27%
    10:00 +12°C° 0 mm 2 mps 686 mmHg 24%
    11:00 +13°C° 0 mm 2 mps 686 mmHg 24%
    12:00 +13°C° 0 mm 2 mps 686 mmHg 24%
    13:00 +13°C° 0 mm 3 mps 685 mmHg 24%
    14:00 +14°C° 0 mm 2 mps 685 mmHg 26%
    15:00 +13°C° 0 mm 2 mps 685 mmHg 27%
    16:00 +13°C° 0 mm 2 mps 685 mmHg 29%
    17:00 +12°C° 0 mm 2 mps 685 mmHg 34%
    18:00 +10°C° 0 mm 2 mps 685 mmHg 39%
    19:00 +9°C° 0 mm 2 mps 685 mmHg 44%
    20:00 +9°C° 0 mm 2 mps 685 mmHg 44%
    21:00 +8°C° 0 mm 2 mps 685 mmHg 44%
    22:00 +8°C° 0 mm 2 mps 685 mmHg 44%
    23:00 +8°C° 0 mm 2 mps 684 mmHg 42%

    27 November, Monday

    Time Temperature Precipitation Wind Pressure Humidity
    00:00 +7°C° 0 mm 2 mps 684 mmHg 40%
    01:00 +8°C° 0 mm 1 mps 683 mmHg 37%
    02:00 +8°C° 0 mm 1 mps 683 mmHg 36%
    03:00 +8°C° 0 mm 1 mps 683 mmHg 34%
    04:00 +7°C° 0 mm 1 mps 682 mmHg 32%
    05:00 +7°C° 0 mm 1 mps 682 mmHg 32%
    06:00 +7°C° 0 mm 1 mps 682 mmHg 31%
    07:00 +7°C° 0 mm 1 mps 682 mmHg 30%
    08:00 +10°C° 0 mm 1 mps 683 mmHg 26%
    09:00 +12°C° 0 mm 1 mps 683 mmHg 22%
    10:00 +14°C° 0 mm 1 mps 683 mmHg 18%
    11:00 +15°C° 0 mm 1 mps 683 mmHg 17%
    12:00 +16°C° 0 mm 2 mps 682 mmHg 16%
    13:00 +17°C° 0 mm 2 mps 682 mmHg 15%
    14:00 +17°C° 0 mm 2 mps 682 mmHg 16%
    15:00 +16°C° 0 mm 2 mps 681 mmHg 17%
    16:00 +16°C° 0 mm 1 mps 681 mmHg 18%
    17:00 +15°C° 0 mm 1 mps 681 mmHg 20%
    18:00 +13°C° 0 mm 1 mps 681 mmHg 23%
    19:00 +12°C° 0 mm 1 mps 681 mmHg 26%
    20:00 +12°C° 0 mm 1 mps 681 mmHg 26%
    21:00 +11°C° 0 mm 1 mps 681 mmHg 26%
    22:00 +11°C° 0 mm 1 mps 681 mmHg 25%
    23:00 +11°C° 0 mm 1 mps 680 mmHg 25%

    28 November, Tuesday

    Time Temperature Precipitation Wind Pressure Humidity
    00:00 +11°C° 0 mm 1 mps 680 mmHg 25%
    01:00 +11°C° 0 mm 1 mps 680 mmHg 25%
    02:00 +11°C° 0 mm 1 mps 680 mmHg 25%
    03:00 +11°C° 0 mm 1 mps 680 mmHg 25%
    04:00 +11°C° 0 mm 1 mps 679 mmHg 25%
    05:00 +11°C° 0 mm 1 mps 680 mmHg 25%
    06:00 +11°C° 0 mm 1 mps 680 mmHg 26%
    07:00 +11°C° 0 mm 1 mps 680 mmHg 26%
    08:00 +13°C° 0 mm 1 mps 680 mmHg 25%
    09:00 +14°C° 0 mm 2 mps 681 mmHg 24%
    10:00 +15°C° 0 mm 2 mps 681 mmHg 23%
    11:00 +16°C° 0 mm 2 mps 681 mmHg 24%
    12:00 +16°C° 0 mm 2 mps 680 mmHg 26%
    13:00 +16°C° 0 mm 2 mps 680 mmHg 28%
    14:00 +16°C° 0 mm 2 mps 680 mmHg 29%
    15:00 +16°C° 0 mm 2 mps 680 mmHg 31%
    16:00 +15°C° 0 mm 1 mps 680 mmHg 32%
    17:00 +14°C° 0 mm 1 mps 679 mmHg 35%
    18:00 +13°C° 0 mm 1 mps 679 mmHg 38%
    19:00 +12°C° 0 mm 1 mps 679 mmHg 41%
    20:00 +12°C° 0 mm 1 mps 679 mmHg 42%
    21:00 +11°C° 0 mm 1 mps 679 mmHg 43%
    22:00 +11°C° 0 mm 1 mps 679 mmHg 44%
    23:00 +11°C° 0 mm 1 mps 679 mmHg 44%
    Show more